Regional Weather Roundup
Issued by NWS

Home | Current Version | Previous Version | Graphics & Text | Print | Product List | Glossary On
Versions: 1 2 3 4 5 6 7 8 9 10 11 12 13 14 15 16 17 18 19 20 21 22 23 24 25 26 27 28 29 30 31 32 33 34 35 36 37 38 39 40 41 42 43 44 45 46 47 48 49 50
000
ASUS45 KBOI 280210
RWRID

IDAHO REGIONAL WEATHER ROUNDUP
NATIONAL WEATHER SERVICE BOISE ID
700 PM MST MON FEB 27 2017

NOTE: "FAIR" INDICATES FEW OR NO CLOUDS BELOW 12000 FEET
WITH NO SIGNIFICANT WEATHER AND/OR OBSTRUCTIONS TO VISIBILITY

IDZ012-014-280300-
SOUTHWEST IDAHO


CITY           SKY/WX    TMP DP  RH WIND       PRES   REMARKS
BOISE          FLURRIES  31  27  85 SE8       29.79R WCI  23
CALDWELL       MOCLDY    33  25  72 E14       29.78S WCI  23
MOUNTAIN HOME  MOCLDY    31  31 100 NE7       29.80R WCI  24
$$

IDZ016-017-280300-
SOUTHCENTRAL IDAHO


CITY           SKY/WX    TMP DP  RH WIND       PRES   REMARKS
BURLEY         MIX PCPN  29  18  63 W14       29.77R WCI  18
JEROME         PTCLDY    25  19  78 S6        29.79R WCI  18
TWIN FALLS     PTCLDY    22  17  81 S12       29.78R WCI  10
$$

IDZ019>023-280300-
SOUTHEAST IDAHO


CITY           SKY/WX    TMP DP  RH WIND       PRES   REMARKS
IDAHO FALLS    CLOUDY    22  17  81 S20       29.72R WCI   7
POCATELLO      CLEAR     23  17  78 SW16      29.76R WCI  10
REXBURG        CLOUDY    21  16  81 SW15      29.70R WCI   8
$$

IDZ006-010-011-018-031-032-280300-
CENTRAL IDAHO MOUNTAINS


CITY           SKY/WX    TMP DP  RH WIND       PRES   REMARKS
MCCALL         CLOUDY    21  11  65 SE7       29.63S WCI  12
HAILEY         PTCLDY    18   7  62 SE6       29.71R WCI   9
STANLEY          N/A     16   7  67 CALM      29.63S
SALMON         CLOUDY    27  23  86 CALM      29.65R
CHALLIS        PTCLDY    24   6  46 SW10      29.65R WCI  14
$$

IDZ002-004-006-007-026-280300-
NORTHERN IDAHO


CITY           SKY/WX    TMP DP  RH WIND       PRES   REMARKS
LEWISTON       CLOUDY    34  30  85 SE3       29.69R
LOWELL           N/A     34  31  88 CALM      29.72R
COEUR D`ALENE  FLURRIES  29  27  92 SW5       29.63S WCI  24
MULLAN PASS    LGT SNOW  16  15  96 VRB5      29.46S VSB 3/4 WCI   9
$$



USA.gov is the U.S. government's official web portal to all federal, state and local government web resources and services.